Weather in San José del Cabo

Mexico     23°05′44″N   109°42′37″W
temp.,
°C
wind,
m/s
gust,
m/s
humid.,
%
clouds,
%
prec.,
mm/h
press.,
hPa
HPBL,
m
12 may, wed
wed1200:00+25nne12571 0.0 101283
03:00+25ene225838 0.0 101119
06:00+24nne116174 0.0 101213
09:00+27ene2351100 0.0 1013307
12:00+28se335121 0.0 1014444
15:00+28sse324716 0.0 1012653
18:00+29s434486 0.0 1011560
21:00+27w224860 0.0 101131
13 may, thu
thu1300:00+26n22483 0.0 101322
03:00+26n22495 0.0 101213
06:00+25nnw01525 0.0 101212
09:00+28sse11485 0.0 1014242
12:00+30sse424593 0.0 1013723
15:00+30s534111 0.0 1012772
18:00+31ssw443532 0.0 1010576
21:00+27nw224430 0.0 101129
14 may, fri
fri1400:00+27nw224016 0.0 101127
03:00+26ne23415 0.0 101116
06:00+26nnw223998 0.0 101112
09:00+30ssw113318 0.0 1013285
12:00+29se433999 0.0 1013680
15:00+30se333984 0.0 1012696
18:00+28sse22423 0.0 1011434
21:00+27wnw11465 0.0 101120
15 may, sat
sat1500:00+27nw33425 0.0 101130
03:00+26nw22436 0.0 101020
06:00+25ne224710 0.0 101215
09:00+28e014512 0.0 1014312
12:00+30sse42425 0.0 1013839
15:00+29sse434286 0.0 1012713
18:00+28ese224658 0.0 1011437
21:00+26nnw115468 0.0 101223
16 may, sun
sun1600:00+26w2241100 0.0 101339
03:00+25nw3343100 0.0 101239
06:00+25nw224299 0.0 101325
09:00+28e1135100 0.0 1014304
12:00+28se4348100 0.0 1014661
15:00+29sse434783 0.0 1013726
18:00+28ese224272 0.0 1012456
21:00+24n11575 0.0 101319